Overview Statistics Trail Chart Weather Telemetry Raw packets
 

This is the latest recevied weather packets stored in our database for station/object HB9FHL-13. If no packets are shown the sender has not sent any weather packets the latest 10 day(s).

<< 7 8 9 10 11 12 13 >>
Time Temp. Humidity Pressure Rain* Wind** Luminosity Snow
1788631790 20° C - 1028 hPa 0 mm - - -
1788631489 19.44° C - 1025.5 hPa 0 mm - - -
1788631189 19.44° C - 1026.1 hPa 0 mm - - -
1788630890 20° C - 1028.2 hPa 0 mm - - -
1788630588 19.44° C - 1027.7 hPa 0 mm - - -
1788630287 20° C - 1023.2 hPa 0 mm - - -
1788629987 19.44° C - 1027.9 hPa 0 mm - - -
1788629688 20.56° C - 1026.7 hPa 0 mm - - -
1788629386 19.44° C - 1023.6 hPa 0 mm - - -
1788629086 20° C - 1027.2 hPa 0 mm - - -
1788628785 19.44° C - 1026.3 hPa 0 mm - - -
1788628183 20° C - 1028.1 hPa 0 mm - - -
1788627883 20° C - 1024.9 hPa 0 mm - - -
1788627582 20.56° C - 1026.7 hPa 0 mm - - -
1788627281 19.44° C - 1029 hPa 0 mm - - -
1788626979 20° C - 1027.5 hPa 0 mm - - -
1788626679 20° C - 1026.7 hPa 0 mm - - -
1788626378 21.11° C - 1027.4 hPa 0 mm - - -
1788626078 19.44° C - 1027.9 hPa 0 mm - - -
1788625777 20° C - 1024.7 hPa 0 mm - - -
1788625476 20° C - 1026.6 hPa 0 mm - - -
1788625176 20° C - 1028.1 hPa 0 mm - - -
1788624875 20.56° C - 1026.6 hPa 0 mm - - -
1788624574 20.56° C - 1025.4 hPa 0 mm - - -
1788624274 19.44° C - 1028.6 hPa 0 mm - - -

* Rain since midnight (hover to see other rain measurements)
** Current wind speed in m/s (hover to see current wind gust speed)